Location: Aiyekoto
(8.4333°N, 4.3667°E)
Time: 12:59:42
(UTC+00:00)

Courier 1B Rocket - All Passes

Search period start: 26 September 2020 00:00
Search period end: 06 October 2020 00:00
Orbit: 920 x 1202 km, 28.2° (Epoch: 25 September)

Date Brightness Start Highest point End Pass type
(mag) Time Alt. Az. Time Alt. Az. Time Alt. Az.
26 Sep - 02:33:01 10° SSW 02:38:29 26° SSE 02:43:41 10° E visible
26 Sep - 04:25:25 10° WSW 04:31:58 86° NNW 04:38:14 10° ENE visible
26 Sep - 06:20:26 10° WNW 06:25:38 27° NNW 06:30:48 10° NE daylight
26 Sep - 08:17:37 10° NNW 08:20:16 13° N 08:22:57 10° NNE daylight
26 Sep - 10:12:27 10° NNW 10:15:29 13° N 10:18:35 10° NE daylight
26 Sep - 12:04:29 10° NW 12:10:10 29° NNE 12:16:11 10° E daylight
26 Sep - 13:57:05 10° WNW 14:04:04 85° NNE 14:11:36 10° ESE daylight
26 Sep - 15:51:37 10° W 15:57:51 30° SSW 16:04:23 10° SSE daylight
27 Sep - 01:32:56 10° S 01:37:16 17° SSE 01:41:25 10° ESE visible
27 Sep - 03:24:18 10° SW 03:30:57 63° SSE 03:37:12 10° ENE visible
27 Sep - 05:18:33 10° W 05:24:27 38° NNW 05:30:11 10° NE daylight
27 Sep - 07:15:15 10° NW 07:18:43 15° NNW 07:22:13 10° NNE daylight
27 Sep - 09:11:43 10° NNW 09:13:51 12° N 09:16:01 10° NNE daylight
27 Sep - 11:03:59 10° NNW 11:08:47 21° NNE 11:13:47 10° ENE daylight
27 Sep - 12:56:13 10° NW 13:02:51 59° NNE 13:10:01 10° ESE daylight
27 Sep - 14:49:52 10° W 14:56:33 44° SSW 15:03:40 10° SE daylight
27 Sep - 16:47:36 10° SW 16:50:42 13° SSW 16:53:51 10° S daylight
28 Sep - 00:33:56 10° S 00:35:52 11° SSE 00:37:47 10° SE night (unlit)
28 Sep - 02:23:25 10° SW 02:29:52 41° SSE 02:35:54 10° E visible
28 Sep - 04:16:52 10° WSW 04:23:21 56° NNW 04:29:30 10° NE visible
28 Sep - 06:12:52 10° WNW 06:17:18 19° NNW 06:21:40 10° NNE daylight
28 Sep - 08:10:19 10° NNW 08:12:13 11° N 08:14:06 10° NNE daylight
28 Sep - 10:03:32 10° NNW 10:07:19 16° NNE 10:11:12 10° NE daylight
28 Sep - 11:55:31 10° NW 12:01:38 40° NNE 12:08:10 10° E daylight
28 Sep - 13:48:32 10° WNW 13:55:19 64° SSW 14:02:39 10° SE daylight
28 Sep - 15:44:17 10° WSW 15:49:13 19° SSW 15:54:20 10° SSE daylight
29 Sep - 01:22:47 10° SSW 01:28:41 28° SSE 01:34:16 10° E visible
29 Sep - 03:15:25 10° WSW 03:22:16 84° NNW 03:28:41 10° ENE visible
29 Sep - 05:10:39 10° WNW 05:15:59 26° NNW 05:21:10 10° NE visible
29 Sep - 07:08:06 10° NNW 07:10:36 12° N 07:13:06 10° NNE daylight
29 Sep - 09:03:03 10° NNW 09:05:46 13° N 09:08:32 10° NE daylight
29 Sep - 10:54:57 10° NW 11:00:22 28° NNE 11:06:04 10° E daylight
29 Sep - 12:47:29 10° WNW 12:54:09 87° NNE 13:01:22 10° ESE daylight
29 Sep - 14:42:00 10° W 14:47:51 28° SSW 14:54:02 10° SSE daylight
30 Sep - 00:22:31 10° SSW 00:27:24 19° SSE 00:32:04 10° ESE night (unlit)
30 Sep - 02:14:11 10° SW 02:21:11 66° SSE 02:27:40 10° ENE visible
30 Sep - 04:08:38 10° W 04:14:46 38° NNW 04:20:36 10° NE visible
30 Sep - 06:05:33 10° NW 06:09:04 15° NNW 06:12:32 10° NNE daylight
30 Sep - 08:02:18 10° NNW 08:04:11 11° N 08:06:03 10° NNE daylight
30 Sep - 09:54:29 10° NNW 09:59:03 21° NNE 10:03:46 10° ENE daylight
30 Sep - 11:46:39 10° NW 11:53:01 59° NNE 11:59:51 10° ESE daylight
30 Sep - 13:40:18 10° W 13:46:36 41° SSW 13:53:22 10° SE daylight
30 Sep - 15:38:23 10° SW 15:40:43 12° SSW 15:43:05 10° S daylight
30 Sep - 23:23:02 10° S 23:25:58 12° SSE 23:28:50 10° SE night (unlit)
01 Oct - 01:13:11 10° SW 01:20:02 44° SSE 01:26:24 10° E night (unlit)
01 Oct - 03:06:50 10° WSW 03:13:37 56° NNW 03:19:57 10° NE visible
01 Oct - 05:03:02 10° WNW 05:07:37 20° NNW 05:12:05 10° NNE visible
01 Oct - 07:00:43 10° NNW 07:02:33 11° N 07:04:21 10° NNE daylight
01 Oct - 08:54:01 10° NNW 08:57:37 16° NNE 09:01:18 10° NE daylight
01 Oct - 10:45:59 10° NW 10:51:53 40° NNE 10:58:06 10° E daylight
01 Oct - 12:38:59 10° WNW 12:45:27 62° SSW 12:52:25 10° SE daylight
01 Oct - 14:34:49 10° WSW 14:39:15 18° SSW 14:43:53 10° SSE daylight
02 Oct - 00:12:28 10° SSW 00:18:48 30° SSE 00:24:46 10° E night (unlit)
02 Oct - 02:05:17 10° WSW 02:12:29 82° NNW 02:19:08 10° ENE visible
02 Oct - 04:00:41 10° WNW 04:06:17 27° NNW 04:11:36 10° NE visible
02 Oct - 05:58:18 10° NNW 06:00:56 13° N 06:03:32 10° NNE daylight
02 Oct - 07:53:28 10° NNW 07:56:06 13° N 07:58:45 10° NE daylight
02 Oct - 09:45:24 10° NW 09:50:41 28° NNE 09:56:07 10° E daylight
02 Oct - 11:37:56 10° WNW 11:44:22 89° NE 11:51:13 10° ESE daylight
02 Oct - 13:32:31 10° W 13:37:57 26° SSW 13:43:43 10° SSE daylight
02 Oct - 23:12:05 10° SSW 23:17:27 20° SSE 23:22:36 10° ESE night (unlit)
03 Oct - 01:03:58 10° SW 01:11:19 68° SSE 01:18:08 10° ENE night (unlit)
03 Oct - 02:58:34 10° W 03:05:00 38° NNW 03:11:04 10° NE visible
03 Oct - 04:55:38 10° NW 04:59:23 16° NNW 05:03:02 10° NNE visible
03 Oct - 06:52:33 10° NNW 06:54:31 11° N 06:56:28 10° NNE daylight
03 Oct - 08:44:53 10° NNW 08:49:23 20° NNE 08:53:56 10° ENE daylight
03 Oct - 10:37:06 10° NW 10:43:17 60° NNE 10:49:48 10° ESE daylight
03 Oct - 12:30:48 10° W 12:36:46 39° SSW 12:43:08 10° SE daylight
03 Oct - 14:29:51 10° SSW 14:30:48 10° SSW 14:31:46 10° SSW daylight
03 Oct - 22:12:23 10° S 22:15:58 14° SSE 22:19:30 10° SE night (unlit)
04 Oct - 00:02:53 10° SW 00:10:05 46° SSE 00:16:49 10° ENE night (unlit)
04 Oct - 01:56:40 10° WSW 02:03:47 56° NNW 02:10:24 10° NE visible
04 Oct - 03:53:01 10° WNW 03:57:54 20° NNW 04:02:35 10° NNE visible
04 Oct - 05:50:46 10° NNW 05:52:52 12° N 05:54:57 10° NNE daylight
04 Oct - 07:44:20 10° NNW 07:47:58 16° NNE 07:51:36 10° NE daylight
04 Oct - 09:36:24 10° NW 09:42:12 40° NNE 09:48:10 10° E daylight
04 Oct - 11:29:28 10° WNW 11:35:41 59° SSW 11:42:17 10° SE daylight
04 Oct - 13:25:30 10° WSW 13:29:24 16° SSW 13:33:27 10° S daylight
04 Oct - 23:02:07 10° SSW 23:08:47 32° SSE 23:15:09 10° E night (unlit)
05 Oct - 00:55:03 10° WSW 01:02:34 81° NNW 01:09:33 10° ENE night (unlit)
05 Oct - 02:50:35 10° WNW 02:56:29 28° NNW 03:02:05 10° NE visible
05 Oct - 04:48:14 10° NW 04:51:14 13° N 04:54:09 10° NNE visible
05 Oct - 06:43:38 10° NNW 06:46:27 13° N 06:49:14 10° NE daylight
05 Oct - 08:35:46 10° NW 08:41:01 28° NNE 08:46:20 10° E daylight
05 Oct - 10:28:24 10° WNW 10:34:40 89° SSW 10:41:13 10° ESE daylight
05 Oct - 12:23:06 10° W 12:28:09 24° SSW 12:33:28 10° SSE daylight
05 Oct - 22:01:42 10° SSW 22:07:24 22° SSE 22:12:56 10° ESE night (unlit)
